Seabourn Sojourn — C6YA5 — position and weather

sailwx.info

Track history (hours):
 
Tides and Currents Weather Stations Pressure Air Temp Water Temp Dewpoint Dewpoint Depression Visibility Wind Speed Wind Dir Waves Ship Positions

Seabourn Sojourn

Last reported at 2020-Jan-19 15:00 UTC. Time now 2020-Jan-19 16:56 UTC.
Position N 15°18' W 042°00'.

Length 197 m; draft 6.6 m.

Type: Ship. MMSI: 311027100.

Wind from 050 at 12 knots

Barometer 1016.0 mb

Date/timePositionNaut miles runAvg speedWind from/ knotsBaromVisibWave heightAir tempDewpointWater temp
2020-Jan-19 15:00N 15°18' W 042°00'3517.4 050 / 121016.0
2020-Jan-19 13:00N 15°18' W 042°36'1818.4 040 / 111019.0
2020-Jan-19 12:00N 15°12' W 042°54'1211.6 050 / 171019.0
2020-Jan-19 11:00N 15°12' W 043°06'1818.4 050 / 171019.0
2020-Jan-19 10:00N 15°06' W 043°24'1717.4 050 / 151018.0
2020-Jan-19 09:00N 15°06' W 043°42'1818.4 050 / 151018.0
2020-Jan-19 08:00N 15°00' W 044°00'1717.4 1015.0
2020-Jan-19 07:00N 15°00' W 044°18'1818.4 1015.0
2020-Jan-19 06:00N 14°54' W 044°36'1211.6 1015.0
2020-Jan-19 05:00N 14°54' W 044°48'1818.4 060 / 161015.0
2020-Jan-19 04:00N 14°48' W 045°06'14620.9 080 / 181016.0
2020-Jan-18 21:00N 14°30' W 047°36'0 0.0 070 / 151017.0
2020-Jan-18 19:00N 14°30' W 047°36'6464.2 090 / 171017.0
2020-Jan-18 18:00N 14°24' W 048°42'0 0.0 090 / 241018.0
2020-Jan-18 17:00N 14°24' W 048°42'0 0.0 090 / 241018.0
2020-Jan-18 16:00N 14°24' W 048°42'0 0.0 090 / 241018.0
2020-Jan-18 15:00N 14°24' W 048°42'5317.6 090 / 241018.0
2020-Jan-18 12:00N 14°18' W 049°36'1313.1 090 / 211018.0
2020-Jan-18 11:00N 14°12' W 049°48'1717.5 070 / 201018.0
2020-Jan-18 10:00N 14°12' W 050°06'1818.5 080 / 191017.0
2020-Jan-18 09:00N 14°06' W 050°24'2323.3 080 / 211017.0
2020-Jan-18 08:00N 14°06' W 050°48'1313.1 060 / 201014.0
2020-Jan-18 07:00N 14°00' W 051°00'1211.6 060 / 201014.0
2020-Jan-18 06:00N 14°00' W 051°12'1717.5 070 / 211014.0
2020-Jan-18 05:00N 14°00' W 051°30'1818.5 1015.0
2020-Jan-18 04:00N 13°54' W 051°48'6432.2 1015.0
2020-Jan-18 02:00N 13°48' W 052°54'0 0.0 060 / 251016.0
2020-Jan-18 01:00N 13°48' W 052°54'0 0.0 060 / 251016.0
2020-Jan-18 00:00N 13°48' W 052°54'4747.0 060 / 251016.0
2020-Jan-17 23:00N 13°42' W 053°42'0 0.0 080 / 231016.0
2020-Jan-17 21:00N 13°42' W 053°42'1717.5 080 / 231016.0
2020-Jan-17 20:00N 13°42' W 054°00'1313.1 070 / 221016.0
2020-Jan-17 19:00N 13°36' W 054°12'4715.7 070 / 261015.0
2020-Jan-17 16:00N 13°30' W 055°00'3014.9 090 / 231016.0
2020-Jan-17 14:00N 13°24' W 055°30'2323.3 080 / 231016.0
2020-Jan-17 13:00N 13°24' W 055°54'1211.7 100 / 221018.0
2020-Jan-17 12:00N 13°24' W 056°06'1918.5 090 / 221018.0
2020-Jan-17 11:00N 13°18' W 056°24'1211.7 090 / 211016.0
2020-Jan-17 10:00N 13°18' W 056°36'2424.1 090 / 211016.0
2020-Jan-17 09:00N 13°12' W 057°00'6 5.8 090 / 251013.0
2020-Jan-17 08:00N 13°12' W 057°06'1918.5 090 / 251013.0
2020-Jan-17 07:00N 13°06' W 057°24'1211.7 080 / 231013.0
2020-Jan-17 06:00N 13°06' W 057°36'1817.5 080 / 231013.0
2020-Jan-17 05:00N 13°06' W 057°54'9949.7 080 / 231014.0
2020-Jan-17 03:00N 13°06' W 059°36'0 0.0 100 / 101015.0
2020-Jan-17 02:00N 13°06' W 059°36'0 0.0 100 / 101015.0
2020-Jan-17 00:00N 13°06' W 059°36'0 0.0 100 / 101015.0
2020-Jan-16 22:00N 13°06' W 059°36'0 0.0 1015.0
2020-Jan-16 21:00N 13°06' W 059°36'0 0.0 100 / 101015.0
2020-Jan-16 20:00N 13°06' W 059°36'0 0.0 100 / 101013.0
2020-Jan-16 17:00N 13°06' W 059°36'0 0.0 1013.0
2020-Jan-16 15:00N 13°06' W 059°36'0 0.0 100 / 101015.0
2020-Jan-16 14:00N 13°06' W 059°36'0 0.0 100 / 151017.0
2020-Jan-16 13:00N 13°06' W 059°36'0 0.0 100 / 151018.0
2020-Jan-16 11:00N 13°06' W 059°36'0 0.0 080 / 71013.0
2020-Jan-16 10:00N 13°06' W 059°36'0 0.0 090 / 51013.0
2020-Jan-16 09:00N 13°06' W 059°36'0 0.0 090 / 51013.0
2020-Jan-16 08:00N 13°06' W 059°36'0 0.0 1013.0
2020-Jan-16 07:00N 13°06' W 059°36'0 0.0 1013.0
2020-Jan-16 06:00N 13°06' W 059°36'0 0.0 1013.0
2020-Jan-16 05:00N 13°06' W 059°36'0 0.0 1013.0
2020-Jan-16 03:00N 13°06' W 059°36'0 0.0 090 / 81016.0
2020-Jan-16 01:00N 13°06' W 059°36'0 0.0 090 / 81016.0
2020-Jan-15 23:00N 13°06' W 059°36'0 0.0 090 / 81015.0
2020-Jan-15 22:00N 13°06' W 059°36'0 0.0 080 / 61014.0
2020-Jan-15 17:00N 13°06' W 059°36'0 0.0 1013.0
2020-Jan-15 13:00N 13°06' W 059°36'0 0.0 090 / 151015.0
2020-Jan-15 12:00N 13°06' W 059°36'6 3.0 120 / 191015.0
2020-Jan-15 10:00N 13°12' W 059°36'8 8.4 040 / 121014.0
2020-Jan-15 09:00N 13°06' W 059°42'0 0.0 1011.0
2020-Jan-15 08:00N 13°06' W 059°42'6 6.0 1011.0
2020-Jan-15 07:00N 13°12' W 059°42'17 8.4 1011.0
2020-Jan-15 05:00N 13°00' W 059°54'4113.8 090 / 271013.0
2020-Jan-15 02:00N 12°54' W 060°36'0 0.0 090 / 271013.0
2020-Jan-15 01:00N 12°54' W 060°36'3014.9 090 / 271013.0
2020-Jan-14 23:00N 13°00' W 061°06'0 0.0 090 / 271013.0
2020-Jan-14 22:00N 13°00' W 061°06'6 1.9 090 / 271013.0
2020-Jan-14 19:00N 13°00' W 061°12'0 0.0 060 / 171016.0
2020-Jan-14 18:00N 13°00' W 061°12'0 0.0 060 / 171016.0
2020-Jan-14 17:00N 13°00' W 061°12'0 0.0 060 / 171016.0
2020-Jan-14 15:00N 13°00' W 061°12'8 2.1 060 / 171016.0
2020-Jan-14 11:00N 12°54' W 061°18'2121.5 080 / 251015.0
2020-Jan-14 10:00N 12°36' W 061°30'1313.2 070 / 251014.0
2020-Jan-14 09:00N 12°30' W 061°42'1313.2 070 / 251014.0
2020-Jan-14 08:00N 12°24' W 061°54'1918.6 070 / 261012.0
2020-Jan-14 07:00N 12°18' W 062°12'1918.6 080 / 251012.0
2020-Jan-14 06:00N 12°12' W 062°30'1313.2 1013.0
2020-Jan-14 05:00N 12°06' W 062°42'5627.9 1013.0
2020-Jan-14 03:00N 11°48' W 063°36'0 0.0 070 / 251014.0
2020-Jan-14 02:00N 11°48' W 063°36'0 0.0 070 / 251014.0
2020-Jan-14 01:00N 11°48' W 063°36'4342.8 070 / 251014.0
2020-Jan-14 00:00N 11°36' W 064°18'0 0.0 070 / 251014.0
2020-Jan-13 23:00N 11°36' W 064°18'18 8.8 110 / 211014.0
2020-Jan-13 21:00N 11°36' W 064°36'4120.6 080 / 271014.0
2020-Jan-13 19:00N 11°36' W 065°18'0 0.0 090 / 271013.0
2020-Jan-13 18:00N 11°36' W 065°18'5911.8 090 / 271013.0
2020-Jan-13 13:00N 11°36' W 066°18'1211.8 110 / 281017.0
2020-Jan-13 12:00N 11°36' W 066°30'1211.8 080 / 301016.0
2020-Jan-13 11:00N 11°36' W 066°42'1211.8 100 / 301015.0
2020-Jan-13 10:00N 11°36' W 066°54'6 5.9 080 / 281015.0
2020-Jan-13 09:00N 11°36' W 067°00'1313.2 090 / 231014.0
2020-Jan-13 08:00N 11°42' W 067°12'1211.8 1012.0
2020-Jan-13 07:00N 11°42' W 067°24'1211.8 1012.0
2020-Jan-13 06:00N 11°42' W 067°36'1313.2 090 / 281013.0
2020-Jan-13 05:00N 11°48' W 067°48'30 9.9 090 / 301014.0
2020-Jan-13 02:00N 12°06' W 068°12'0 0.0 080 / 181015.0
2020-Jan-13 00:00N 12°06' W 068°12'0 0.0 080 / 181015.0
2020-Jan-12 23:00N 12°06' W 068°12'0 0.0 080 / 181015.0
2020-Jan-12 22:00N 12°06' W 068°12'0 0.0 080 / 181015.0
2020-Jan-12 21:00N 12°06' W 068°12'0 0.0 1015.0
2020-Jan-12 20:00N 12°06' W 068°12'0 0.0 020 / 141015.0
2020-Jan-12 19:00N 12°06' W 068°12'0 0.0 110 / 111018.0
2020-Jan-12 15:00N 12°06' W 068°12'0 0.0 110 / 111018.0
2020-Jan-12 13:00N 12°06' W 068°12'0 0.0 110 / 111018.0
2020-Jan-12 12:00N 12°06' W 068°12'6 5.9 070 / 181017.0
2020-Jan-12 11:00N 12°06' W 068°18'8 8.4 090 / 241016.0
2020-Jan-12 10:00N 12°00' W 068°24'1211.7 080 / 271015.0
2020-Jan-12 09:00N 12°00' W 068°36'1817.6 090 / 251013.0
2020-Jan-12 08:00N 12°00' W 068°54'1211.7 100 / 271013.0
2020-Jan-12 07:00N 12°00' W 069°06'1313.2 100 / 261013.0
2020-Jan-12 06:00N 12°06' W 069°18'1918.6 1014.0
2020-Jan-12 05:00N 12°12' W 069°36'4013.2 1014.0
2020-Jan-12 02:00N 12°30' W 070°12'0 0.0 090 / 161017.0
2020-Jan-12 01:00N 12°30' W 070°12'0 0.0 080 / 361017.0
2020-Jan-11 14:00N 12°30' W 070°12'2412.1 080 / 361017.0
2020-Jan-11 12:00N 12°24' W 070°36'1313.2 090 / 391015.0
2020-Jan-11 11:00N 12°30' W 070°48'8 8.4 090 / 311014.0
2020-Jan-11 10:00N 12°36' W 070°54'1313.2 090 / 381014.0
2020-Jan-11 09:00N 12°30' W 071°06'1211.7 090 / 381011.0
2020-Jan-11 08:00N 12°30' W 071°18'1211.7 090 / 401011.0
2020-Jan-11 07:00N 12°30' W 071°30'1211.7 090 / 401011.0
2020-Jan-11 06:00N 12°30' W 071°42'6 5.9 1011.0
2020-Jan-11 05:00N 12°30' W 071°48'2110.6 1012.0
2020-Jan-11 03:00N 12°18' W 072°06'5655.7 060 / 451009.0
2020-Jan-11 02:00N 11°48' W 072°54'0 0.0 060 / 451009.0
2020-Jan-11 01:00N 11°48' W 072°54'0 0.0 060 / 451009.0
2020-Jan-11 00:00N 11°48' W 072°54'0 0.0 060 / 381009.0
2020-Jan-10 23:00N 11°48' W 072°54'1313.2 060 / 381009.0
2020-Jan-10 22:00N 11°42' W 073°06'1716.8 060 / 381009.0
2020-Jan-10 21:00N 11°30' W 073°18'4924.3 060 / 411008.0
2020-Jan-10 19:00N 11°18' W 074°06'0 0.0 080 / 411008.0
2020-Jan-10 18:00N 11°18' W 074°06'0 0.0 080 / 411008.0
2020-Jan-10 17:00N 11°18' W 074°06'8 8.4 080 / 411008.0
2020-Jan-10 16:00N 11°12' W 074°12'1817.7 080 / 481007.0
2020-Jan-10 15:00N 11°12' W 074°30'0 0.0 070 / 481010.0
2020-Jan-10 14:00N 11°12' W 074°30'29 7.4 070 / 481010.0
2020-Jan-10 10:00N 11°12' W 075°00'6 5.9 070 / 471007.0
2020-Jan-10 09:00N 11°12' W 075°06'13 6.6 070 / 471007.0
2020-Jan-10 07:00N 11°06' W 075°18'6 6.0 060 / 501006.0
2020-Jan-10 06:00N 11°00' W 075°18'3837.9 040 / 451007.0
2020-Jan-10 05:00N 10°24' W 075°30'0 0.0 020 / 81010.0
2020-Jan-10 04:00N 10°24' W 075°30'0 0.0 020 / 81010.0
2020-Jan-10 02:00N 10°24' W 075°30'0 0.0 020 / 81010.0
2020-Jan-10 01:00N 10°24' W 075°30'0 0.0 020 / 81010.0
2020-Jan-09 18:00N 10°24' W 075°30'0 0.0 020 / 81010.0
2020-Jan-09 16:00N 10°24' W 075°30'   020 / 81010.0
Track history (hours):
 
Tides and Currents Weather Stations Pressure Air Temp Water Temp Dewpoint Dewpoint Depression Visibility Wind Speed Wind Dir Waves Ship Positions

Seabourn Sojourn

Last reported at 2020-Jan-19 15:00 UTC. Time now 2020-Jan-19 16:56 UTC.
Position N 15°18' W 042°00'.

Length 197 m; draft 6.6 m.

Type: Ship. MMSI: 311027100.

Wind from 050 at 12 knots

Barometer 1016.0 mb

Date/timePositionNaut miles runAvg speedWind from/ knotsBaromVisibWave heightAir tempDewpointWater temp
2020-Jan-19 15:00N 15°18' W 042°00'3517.4 050 / 121016.0
2020-Jan-19 13:00N 15°18' W 042°36'1818.4 040 / 111019.0
2020-Jan-19 12:00N 15°12' W 042°54'1211.6 050 / 171019.0
2020-Jan-19 11:00N 15°12' W 043°06'1818.4 050 / 171019.0
2020-Jan-19 10:00N 15°06' W 043°24'1717.4 050 / 151018.0
2020-Jan-19 09:00N 15°06' W 043°42'1818.4 050 / 151018.0
2020-Jan-19 08:00N 15°00' W 044°00'1717.4 1015.0
2020-Jan-19 07:00N 15°00' W 044°18'1818.4 1015.0
2020-Jan-19 06:00N 14°54' W 044°36'1211.6 1015.0
2020-Jan-19 05:00N 14°54' W 044°48'1818.4 060 / 161015.0
2020-Jan-19 04:00N 14°48' W 045°06'14620.9 080 / 181016.0
2020-Jan-18 21:00N 14°30' W 047°36'0 0.0 070 / 151017.0
2020-Jan-18 19:00N 14°30' W 047°36'6464.2 090 / 171017.0
2020-Jan-18 18:00N 14°24' W 048°42'0 0.0 090 / 241018.0
2020-Jan-18 17:00N 14°24' W 048°42'0 0.0 090 / 241018.0
2020-Jan-18 16:00N 14°24' W 048°42'0 0.0 090 / 241018.0
2020-Jan-18 15:00N 14°24' W 048°42'5317.6 090 / 241018.0
2020-Jan-18 12:00N 14°18' W 049°36'1313.1 090 / 211018.0
2020-Jan-18 11:00N 14°12' W 049°48'1717.5 070 / 201018.0
2020-Jan-18 10:00N 14°12' W 050°06'1818.5 080 / 191017.0
2020-Jan-18 09:00N 14°06' W 050°24'2323.3 080 / 211017.0
2020-Jan-18 08:00N 14°06' W 050°48'1313.1 060 / 201014.0
2020-Jan-18 07:00N 14°00' W 051°00'1211.6 060 / 201014.0
2020-Jan-18 06:00N 14°00' W 051°12'1717.5 070 / 211014.0
2020-Jan-18 05:00N 14°00' W 051°30'1818.5 1015.0
2020-Jan-18 04:00N 13°54' W 051°48'6432.2 1015.0
2020-Jan-18 02:00N 13°48' W 052°54'0 0.0 060 / 251016.0
2020-Jan-18 01:00N 13°48' W 052°54'0 0.0 060 / 251016.0
2020-Jan-18 00:00N 13°48' W 052°54'4747.0 060 / 251016.0
2020-Jan-17 23:00N 13°42' W 053°42'0 0.0 080 / 231016.0
2020-Jan-17 21:00N 13°42' W 053°42'1717.5 080 / 231016.0
2020-Jan-17 20:00N 13°42' W 054°00'1313.1 070 / 221016.0
2020-Jan-17 19:00N 13°36' W 054°12'4715.7 070 / 261015.0
2020-Jan-17 16:00N 13°30' W 055°00'3014.9 090 / 231016.0
2020-Jan-17 14:00N 13°24' W 055°30'2323.3 080 / 231016.0
2020-Jan-17 13:00N 13°24' W 055°54'1211.7 100 / 221018.0
2020-Jan-17 12:00N 13°24' W 056°06'1918.5 090 / 221018.0
2020-Jan-17 11:00N 13°18' W 056°24'1211.7 090 / 211016.0
2020-Jan-17 10:00N 13°18' W 056°36'2424.1 090 / 211016.0
2020-Jan-17 09:00N 13°12' W 057°00'6 5.8 090 / 251013.0
2020-Jan-17 08:00N 13°12' W 057°06'1918.5 090 / 251013.0
2020-Jan-17 07:00N 13°06' W 057°24'1211.7 080 / 231013.0
2020-Jan-17 06:00N 13°06' W 057°36'1817.5 080 / 231013.0
2020-Jan-17 05:00N 13°06' W 057°54'9949.7 080 / 231014.0
2020-Jan-17 03:00N 13°06' W 059°36'0 0.0 100 / 101015.0
2020-Jan-17 02:00N 13°06' W 059°36'0 0.0 100 / 101015.0
2020-Jan-17 00:00N 13°06' W 059°36'0 0.0 100 / 101015.0
2020-Jan-16 22:00N 13°06' W 059°36'0 0.0 1015.0
2020-Jan-16 21:00N 13°06' W 059°36'0 0.0 100 / 101015.0
2020-Jan-16 20:00N 13°06' W 059°36'0 0.0 100 / 101013.0
2020-Jan-16 17:00N 13°06' W 059°36'0 0.0 1013.0
2020-Jan-16 15:00N 13°06' W 059°36'0 0.0 100 / 101015.0
2020-Jan-16 14:00N 13°06' W 059°36'0 0.0 100 / 151017.0
2020-Jan-16 13:00N 13°06' W 059°36'0 0.0 100 / 151018.0
2020-Jan-16 11:00N 13°06' W 059°36'0 0.0 080 / 71013.0
2020-Jan-16 10:00N 13°06' W 059°36'0 0.0 090 / 51013.0
2020-Jan-16 09:00N 13°06' W 059°36'0 0.0 090 / 51013.0
2020-Jan-16 08:00N 13°06' W 059°36'0 0.0 1013.0
2020-Jan-16 07:00N 13°06' W 059°36'0 0.0 1013.0
2020-Jan-16 06:00N 13°06' W 059°36'0 0.0 1013.0
2020-Jan-16 05:00N 13°06' W 059°36'0 0.0 1013.0
2020-Jan-16 03:00N 13°06' W 059°36'0 0.0 090 / 81016.0
2020-Jan-16 01:00N 13°06' W 059°36'0 0.0 090 / 81016.0
2020-Jan-15 23:00N 13°06' W 059°36'0 0.0 090 / 81015.0
2020-Jan-15 22:00N 13°06' W 059°36'0 0.0 080 / 61014.0
2020-Jan-15 17:00N 13°06' W 059°36'0 0.0 1013.0
2020-Jan-15 13:00N 13°06' W 059°36'0 0.0 090 / 151015.0
2020-Jan-15 12:00N 13°06' W 059°36'6 3.0 120 / 191015.0
2020-Jan-15 10:00N 13°12' W 059°36'8 8.4 040 / 121014.0
2020-Jan-15 09:00N 13°06' W 059°42'0 0.0 1011.0
2020-Jan-15 08:00N 13°06' W 059°42'6 6.0 1011.0
2020-Jan-15 07:00N 13°12' W 059°42'17 8.4 1011.0
2020-Jan-15 05:00N 13°00' W 059°54'4113.8 090 / 271013.0
2020-Jan-15 02:00N 12°54' W 060°36'0 0.0 090 / 271013.0
2020-Jan-15 01:00N 12°54' W 060°36'3014.9 090 / 271013.0
2020-Jan-14 23:00N 13°00' W 061°06'0 0.0 090 / 271013.0
2020-Jan-14 22:00N 13°00' W 061°06'6 1.9 090 / 271013.0
2020-Jan-14 19:00N 13°00' W 061°12'0 0.0 060 / 171016.0
2020-Jan-14 18:00N 13°00' W 061°12'0 0.0 060 / 171016.0
2020-Jan-14 17:00N 13°00' W 061°12'0 0.0 060 / 171016.0
2020-Jan-14 15:00N 13°00' W 061°12'8 2.1 060 / 171016.0
2020-Jan-14 11:00N 12°54' W 061°18'2121.5 080 / 251015.0
2020-Jan-14 10:00N 12°36' W 061°30'1313.2 070 / 251014.0
2020-Jan-14 09:00N 12°30' W 061°42'1313.2 070 / 251014.0
2020-Jan-14 08:00N 12°24' W 061°54'1918.6 070 / 261012.0
2020-Jan-14 07:00N 12°18' W 062°12'1918.6 080 / 251012.0
2020-Jan-14 06:00N 12°12' W 062°30'1313.2 1013.0
2020-Jan-14 05:00N 12°06' W 062°42'5627.9 1013.0
2020-Jan-14 03:00N 11°48' W 063°36'0 0.0 070 / 251014.0
2020-Jan-14 02:00N 11°48' W 063°36'0 0.0 070 / 251014.0
2020-Jan-14 01:00N 11°48' W 063°36'4342.8 070 / 251014.0
2020-Jan-14 00:00N 11°36' W 064°18'0 0.0 070 / 251014.0
2020-Jan-13 23:00N 11°36' W 064°18'18 8.8 110 / 211014.0
2020-Jan-13 21:00N 11°36' W 064°36'4120.6 080 / 271014.0
2020-Jan-13 19:00N 11°36' W 065°18'0 0.0 090 / 271013.0
2020-Jan-13 18:00N 11°36' W 065°18'5911.8 090 / 271013.0
2020-Jan-13 13:00N 11°36' W 066°18'1211.8 110 / 281017.0
2020-Jan-13 12:00N 11°36' W 066°30'1211.8 080 / 301016.0
2020-Jan-13 11:00N 11°36' W 066°42'1211.8 100 / 301015.0
2020-Jan-13 10:00N 11°36' W 066°54'6 5.9 080 / 281015.0
2020-Jan-13 09:00N 11°36' W 067°00'1313.2 090 / 231014.0
2020-Jan-13 08:00N 11°42' W 067°12'1211.8 1012.0
2020-Jan-13 07:00N 11°42' W 067°24'1211.8 1012.0
2020-Jan-13 06:00N 11°42' W 067°36'1313.2 090 / 281013.0
2020-Jan-13 05:00N 11°48' W 067°48'30 9.9 090 / 301014.0
2020-Jan-13 02:00N 12°06' W 068°12'0 0.0 080 / 181015.0
2020-Jan-13 00:00N 12°06' W 068°12'0 0.0 080 / 181015.0
2020-Jan-12 23:00N 12°06' W 068°12'0 0.0 080 / 181015.0
2020-Jan-12 22:00N 12°06' W 068°12'0 0.0 080 / 181015.0
2020-Jan-12 21:00N 12°06' W 068°12'0 0.0 1015.0
2020-Jan-12 20:00N 12°06' W 068°12'0 0.0 020 / 141015.0
2020-Jan-12 19:00N 12°06' W 068°12'0 0.0 110 / 111018.0
2020-Jan-12 15:00N 12°06' W 068°12'0 0.0 110 / 111018.0
2020-Jan-12 13:00N 12°06' W 068°12'0 0.0 110 / 111018.0
2020-Jan-12 12:00N 12°06' W 068°12'6 5.9 070 / 181017.0
2020-Jan-12 11:00N 12°06' W 068°18'8 8.4 090 / 241016.0
2020-Jan-12 10:00N 12°00' W 068°24'1211.7 080 / 271015.0
2020-Jan-12 09:00N 12°00' W 068°36'1817.6 090 / 251013.0
2020-Jan-12 08:00N 12°00' W 068°54'1211.7 100 / 271013.0
2020-Jan-12 07:00N 12°00' W 069°06'1313.2 100 / 261013.0
2020-Jan-12 06:00N 12°06' W 069°18'1918.6 1014.0
2020-Jan-12 05:00N 12°12' W 069°36'4013.2 1014.0
2020-Jan-12 02:00N 12°30' W 070°12'0 0.0 090 / 161017.0
2020-Jan-12 01:00N 12°30' W 070°12'0 0.0 080 / 361017.0
2020-Jan-11 14:00N 12°30' W 070°12'2412.1 080 / 361017.0
2020-Jan-11 12:00N 12°24' W 070°36'1313.2 090 / 391015.0
2020-Jan-11 11:00N 12°30' W 070°48'8 8.4 090 / 311014.0
2020-Jan-11 10:00N 12°36' W 070°54'1313.2 090 / 381014.0
2020-Jan-11 09:00N 12°30' W 071°06'1211.7 090 / 381011.0
2020-Jan-11 08:00N 12°30' W 071°18'1211.7 090 / 401011.0
2020-Jan-11 07:00N 12°30' W 071°30'1211.7 090 / 401011.0
2020-Jan-11 06:00N 12°30' W 071°42'6 5.9 1011.0
2020-Jan-11 05:00N 12°30' W 071°48'2110.6 1012.0
2020-Jan-11 03:00N 12°18' W 072°06'5655.7 060 / 451009.0
2020-Jan-11 02:00N 11°48' W 072°54'0 0.0 060 / 451009.0
2020-Jan-11 01:00N 11°48' W 072°54'0 0.0 060 / 451009.0
2020-Jan-11 00:00N 11°48' W 072°54'0 0.0 060 / 381009.0
2020-Jan-10 23:00N 11°48' W 072°54'1313.2 060 / 381009.0
2020-Jan-10 22:00N 11°42' W 073°06'1716.8 060 / 381009.0
2020-Jan-10 21:00N 11°30' W 073°18'4924.3 060 / 411008.0
2020-Jan-10 19:00N 11°18' W 074°06'0 0.0 080 / 411008.0
2020-Jan-10 18:00N 11°18' W 074°06'0 0.0 080 / 411008.0
2020-Jan-10 17:00N 11°18' W 074°06'8 8.4 080 / 411008.0
2020-Jan-10 16:00N 11°12' W 074°12'1817.7 080 / 481007.0
2020-Jan-10 15:00N 11°12' W 074°30'0 0.0 070 / 481010.0
2020-Jan-10 14:00N 11°12' W 074°30'29 7.4 070 / 481010.0
2020-Jan-10 10:00N 11°12' W 075°00'6 5.9 070 / 471007.0
2020-Jan-10 09:00N 11°12' W 075°06'13 6.6 070 / 471007.0
2020-Jan-10 07:00N 11°06' W 075°18'6 6.0 060 / 501006.0
2020-Jan-10 06:00N 11°00' W 075°18'3837.9 040 / 451007.0
2020-Jan-10 05:00N 10°24' W 075°30'0 0.0 020 / 81010.0
2020-Jan-10 04:00N 10°24' W 075°30'0 0.0 020 / 81010.0
2020-Jan-10 02:00N 10°24' W 075°30'0 0.0 020 / 81010.0
2020-Jan-10 01:00N 10°24' W 075°30'0 0.0 020 / 81010.0
2020-Jan-09 18:00N 10°24' W 075°30'0 0.0 020 / 81010.0
2020-Jan-09 16:00N 10°24' W 075°30'   020 / 81010.0

Dump ship's entire track history